Theta_e
298 288 285 284 286 286 287 288 289 291 292 292 290 288 287 288 291 294 296 298 302 300 299 300 301 301 300 301 301 304 305 305 306 307 309 310 311 312 311 309 308 308 310 314 316 320 323 325 326 327 328 328 329 329 329 329 329 329 329 328 328 329 329 329 329 328 328 327 327 328 328 328 329 328 328 328 329 330 331 331 331 331 331 330 328 325
294 286 286 287 289 288 287 288 288 288 290 289 289 287 287 287 286 293 294 298 300 300 298 301 300 301 302 302 302 303 303 302 303 304 307 308 309 310 310 310 309 310 310 312 312 316 320 323 324 326 326 325 326 328 329 328 329 330 330 329 329 329 329 329 329 329 328 329 329 328 328 328 328 327 326 327 328 329 330 330 330 330 330 330 329 326
285 283 289 291 292 290 287 285 286 286 286 287 287 286 286 286 289 291 294 296 297 298 296 297 298 299 301 302 303 304 303 304 304 304 305 307 308 309 309 309 309 308 309 310 312 313 318 321 323 325 325 326 328 328 328 329 329 329 329 330 329 329 329 329 329 329 328 329 329 329 328 328 327 328 328 328 328 328 328 329 329 329 330 329 329 328
281 285 290 293 294 290 288 286 284 284 285 285 286 285 283 287 286 282 291 295 296 295 293 294 294 297 301 303 303 305 305 305 305 304 305 306 307 308 309 310 309 308 308 309 310 312 314 319 321 323 324 325 326 327 328 328 328 329 329 330 329 329 329 329 329 327 329 329 329 329 324 323 326 324 325 325 325 326 326 326 328 328 329 329 329 328
284 290 295 294 292 289 285 285 283 282 280 283 285 285 285 286 285 287 286 293 295 296 296 293 292 293 294 296 299 303 306 306 306 306 304 304 306 307 308 309 309 309 308 308 309 310 312 314 318 321 323 324 325 326 327 328 328 329 329 330 330 330 329 330 329 328 329 327 326 326 320 319 320 319 319 320 323 324 325 325 326 327 328 328 328 328
286 290 294 291 292 292 288 284 283 282 279 280 282 285 286 287 287 287 289 290 288 288 293 292 285 286 292 294 297 301 303 303 306 305 304 304 303 303 304 306 307 307 308 309 309 309 311 314 317 319 321 322 323 325 327 328 329 329 330 330 330 330 330 330 330 329 328 326 326 324 323 321 321 321 320 320 322 323 323 324 327 327 327 327 327 328
287 291 291 289 290 289 288 287 287 284 279 277 278 284 285 285 286 286 286 286 282 282 291 294 284 281 291 293 296 298 300 301 304 304 305 305 305 304 304 305 306 306 306 305 307 308 310 312 315 317 319 320 322 324 327 328 328 329 330 330 330 330 330 330 330 329 327 327 326 325 325 324 323 322 322 324 324 324 325 325 325 326 326 326 326 326
287 289 289 289 288 288 287 286 289 284 280 277 284 283 284 283 283 284 285 285 284 289 292 291 291 284 284 290 297 298 298 299 301 303 304 306 306 305 305 306 305 306 306 306 305 306 309 312 314 316 319 320 321 323 325 326 327 328 328 329 329 329 328 330 330 329 328 327 326 325 325 324 324 323 323 324 324 324 324 324 324 324 325 325 326 326
289 287 287 286 287 286 285 288 289 290 284 282 287 285 283 283 283 283 283 283 284 284 282 287 292 285 284 290 295 297 295 297 299 301 303 305 306 306 306 306 305 305 306 305 305 304 307 311 314 316 318 320 321 322 323 324 326 327 328 328 328 328 328 329 329 328 328 328 327 326 326 324 324 325 324 324 322 322 322 322 323 323 324 324 325 325
289 289 290 291 288 285 288 292 292 292 287 289 291 291 288 286 284 283 281 281 281 280 278 284 289 282 284 290 291 291 295 296 298 300 303 304 305 306 306 306 306 306 305 306 306 306 306 310 313 316 318 319 320 321 322 323 324 325 326 326 326 327 328 328 328 328 328 328 327 326 325 324 324 324 324 323 321 321 322 322 322 322 323 323 323 324
287 293 294 290 288 292 292 293 293 293 292 294 292 288 287 284 283 282 281 281 278 275 278 285 287 285 280 285 290 289 291 296 299 300 302 303 304 304 305 306 307 307 307 307 307 307 307 308 311 313 315 317 318 319 319 319 320 321 323 323 323 326 327 327 328 327 327 327 327 326 326 325 324 324 324 322 321 320 320 321 321 322 322 323 323 323
285 286 286 287 292 292 295 290 295 295 294 292 287 285 282 283 283 280 274 278 276 273 280 284 285 286 278 283 289 293 294 298 299 298 299 300 300 301 301 303 306 307 308 308 308 307 307 306 306 307 310 312 314 315 314 315 316 317 319 321 321 323 325 326 326 327 327 327 327 327 326 326 325 325 324 323 322 321 320 321 321 321 321 321 322 322
280 281 283 287 292 292 288 288 289 292 292 289 287 285 280 274 278 274 275 274 275 275 278 281 284 282 282 287 288 290 292 293 297 299 300 298 298 298 299 300 302 304 305 307 307 308 308 307 307 306 308 309 309 310 312 313 314 315 315 316 319 320 322 324 324 325 326 326 327 327 326 326 326 325 325 323 322 322 321 321 321 320 321 321 321 322
276 280 284 284 287 290 289 282 284 283 287 286 284 283 279 274 273 271 274 274 278 282 282 280 282 280 284 288 292 293 295 294 294 295 295 296 297 297 298 299 300 300 302 305 307 308 308 309 309 309 309 309 310 310 311 311 312 314 314 314 314 317 320 322 323 323 324 326 326 327 327 327 326 325 325 324 323 323 322 322 322 322 322 322 322 322
267 269 276 283 281 288 289 287 286 285 287 287 289 286 282 280 274 271 272 270 272 275 279 282 277 269 280 280 293 295 297 296 295 294 294 295 296 295 296 297 298 298 299 302 305 307 309 310 310 310 311 310 311 311 311 310 310 312 313 314 313 313 315 319 321 322 322 324 325 326 326 326 326 325 325 325 324 323 322 322 322 322 322 322 323 323
276 275 280 286 285 288 287 290 291 289 287 288 290 289 283 280 284 274 274 271 273 272 269 273 277 277 283 288 287 290 293 295 295 295 293 293 293 293 294 295 296 297 298 299 301 304 307 309 310 311 311 311 311 310 310 310 310 309 311 313 314 314 314 315 317 320 321 322 324 324 324 325 324 323 324 323 322 323 323 322 322 322 322 322 323 323
275 273 282 284 288 288 287 290 290 291 277 284 287 280 283 292 287 281 282 277 276 273 272 275 281 283 286 290 288 289 288 292 293 294 294 294 294 294 295 296 296 297 298 298 300 301 303 306 308 310 310 311 310 309 309 310 310 310 310 310 313 314 314 314 314 318 320 321 322 322 324 324 323 323 322 322 322 322 321 321 321 321 321 321 322 322
275 275 281 281 281 283 288 289 289 290 290 286 280 285 290 291 288 283 275 278 276 273 274 281 277 279 281 276 290 289 286 285 286 289 293 294 294 293 294 294 295 296 297 298 299 301 303 305 306 308 309 310 310 310 309 309 310 311 311 310 311 312 313 314 314 314 317 319 320 321 322 323 323 323 322 322 321 320 319 318 319 319 319 320 321 321
282 270 276 281 281 283 286 288 287 290 290 287 284 291 283 277 277 282 279 272 272 272 274 279 280 280 281 281 284 286 288 287 288 287 288 290 292 294 295 295 295 295 296 297 298 300 302 304 305 306 307 308 309 309 309 309 309 308 307 309 311 312 313 314 314 314 315 317 320 321 321 322 322 322 322 321 320 318 318 318 318 318 320 320 318 317
281 270 274 280 280 282 284 282 275 280 288 287 288 285 284 283 280 279 279 281 279 274 275 275 278 275 283 284 286 284 287 290 290 289 288 289 291 293 295 296 297 297 297 297 299 301 302 304 305 306 307 307 307 307 307 306 304 306 308 308 310 311 311 311 311 312 312 313 316 317 318 319 320 320 320 319 318 317 317 318 318 318 317 318 317 316
275 278 271 278 278 279 276 280 276 280 278 281 283 280 284 281 284 282 283 279 276 275 275 275 273 277 283 283 286 286 286 286 288 289 291 291 290 290 291 294 295 297 298 297 299 300 302 303 304 305 306 307 306 304 304 305 305 306 305 307 308 310 310 310 310 310 311 311 311 311 313 315 316 317 318 318 318 318 317 318 317 317 318 314 313 313
270 274 271 276 274 271 276 281 283 284 284 283 283 282 283 281 279 276 275 283 281 278 274 274 273 282 286 287 287 287 289 288 287 288 289 290 292 293 293 292 293 294 296 297 298 300 302 303 304 305 305 302 300 302 303 305 303 303 304 306 307 306 308 309 308 309 309 309 311 310 311 312 313 316 317 317 317 316 317 316 315 315 312 312 313 310
281 276 274 272 273 276 279 282 283 284 283 281 284 282 284 283 283 278 273 277 279 279 281 279 276 279 290 293 288 288 288 287 287 287 288 289 290 290 291 292 292 293 295 297 298 299 301 303 304 304 303 302 303 304 303 302 304 306 305 305 305 307 307 308 309 308 308 308 308 309 310 311 311 312 313 314 314 314 315 314 312 309 310 310 308 305
285 271 272 274 274 276 277 275 281 282 283 280 281 283 280 278 282 280 278 280 276 278 276 276 274 280 288 290 290 291 291 290 290 288 289 290 290 291 291 292 292 292 294 295 297 299 300 301 300 298 297 299 300 301 303 304 305 305 306 306 306 306 307 307 307 307 307 307 307 308 308 308 308 308 309 311 312 312 311 310 307 304 307 307 304 305
275 272 273 271 268 269 269 269 274 273 273 276 279 280 282 282 280 280 282 283 276 277 278 276 270 276 285 290 291 291 291 291 291 292 290 291 291 291 292 293 294 294 294 294 295 297 298 297 297 299 300 300 300 300 302 303 303 304 304 303 304 305 304 303 301 302 303 304 305 305 306 306 306 307 307 309 309 308 306 302 302 302 304 302 302 301
276 275 272 266 263 260 261 259 261 267 274 279 278 278 280 280 279 278 272 275 273 278 279 275 275 282 286 289 290 290 290 289 291 292 293 291 291 292 292 293 293 294 295 295 294 294 296 297 298 298 298 299 300 301 301 301 302 301 300 302 302 303 302 302 300 301 302 302 303 303 302 304 302 304 306 306 304 303 301 300 300 300 299 301 302 299
272 274 274 273 268 267 270 272 275 278 276 273 276 276 277 279 281 280 278 274 271 276 275 277 279 280 281 283 285 287 289 289 289 291 292 293 293 292 293 294 293 292 293 294 296 295 295 296 298 299 299 299 299 297 300 300 301 300 300 300 299 300 301 300 299 299 300 300 300 302 300 300 301 303 301 300 299 295 296 297 295 296 298 294 297 298
274 274 275 274 276 276 277 277 278 278 275 276 275 276 278 277 278 277 275 272 279 275 271 278 280 278 280 283 284 286 288 289 290 290 292 293 293 294 294 294 294 293 293 292 292 295 297 297 297 298 299 298 298 298 297 297 299 301 301 301 300 297 296 300 297 298 298 297 297 299 300 298 297 295 297 294 292 293 292 291 290 292 290 289 294 293
275 272 275 275 275 278 278 278 279 278 277 277 277 277 276 277 277 275 276 279 279 274 271 277 279 278 280 282 284 285 286 287 288 289 291 292 293 293 292 292 293 293 293 293 293 293 295 297 299 299 298 297 296 296 296 296 297 296 295 296 297 296 297 296 297 297 297 296 297 299 299 295 291 292 292 290 291 291 292 292 289 288 289 288 288 289
277 274 278 277 277 278 278 278 278 276 277 277 277 277 278 277 277 277 277 279 279 277 278 278 278 278 281 282 284 285 286 287 288 289 290 291 291 291 291 291 292 293 293 294 293 293 294 296 298 299 298 296 296 296 295 296 297 297 298 299 296 296 295 294 296 297 296 297 298 297 293 291 291 291 289 290 291 290 289 289 289 289 289 288 286 285
276 275 279 275 274 274 277 278 278 277 276 275 277 277 278 278 278 278 278 278 279 277 278 278 277 277 282 285 285 286 287 287 287 287 288 289 290 291 291 291 291 292 293 293 294 293 294 295 297 297 297 297 297 297 297 298 298 297 296 296 295 296 294 294 296 296 296 298 298 295 291 290 292 290 291 292 289 289 290 290 288 288 288 286 285 287
277 275 276 274 272 272 276 277 277 277 276 274 274 276 276 276 274 276 276 278 276 275 277 277 275 276 281 284 285 285 285 285 285 286 287 288 289 290 290 291 292 292 292 292 293 293 293 295 296 297 298 298 297 297 296 297 297 295 297 298 297 297 294 294 297 298 297 298 296 293 293 292 292 291 291 289 291 290 289 288 288 288 287 285 287 287
275 275 273 273 271 271 276 278 276 276 274 271 272 275 277 277 278 279 278 279 279 279 276 273 275 281 282 284 282 283 283 283 284 286 287 288 289 290 290 291 292 293 293 294 293 294 294 294 295 297 299 299 298 297 297 297 295 296 298 298 299 296 295 296 297 298 298 297 295 294 293 291 292 291 290 290 290 289 288 288 288 288 287 288 288 289
277 277 275 277 270 271 275 275 275 271 266 268 279 281 280 278 278 276 276 278 280 280 278 281 281 283 283 283 282 282 283 284 285 287 289 290 290 290 290 291 292 293 294 295 295 295 295 296 296 297 297 297 298 297 296 295 297 298 299 299 295 295 297 296 296 297 298 296 295 294 292 291 291 291 291 289 288 288 288 289 290 288 288 288 288 291
277 278 276 278 273 271 275 275 270 265 267 278 281 282 283 282 280 278 279 279 280 280 281 280 281 282 283 284 284 285 285 287 287 287 288 289 290 290 290 291 292 293 293 294 295 295 296 296 297 296 296 295 295 294 292 292 295 296 294 294 295 296 297 296 297 297 297 296 295 292 291 291 291 292 290 289 289 289 289 289 288 288 287 289 291 292
276 276 277 275 275 275 272 271 264 266 276 280 280 280 281 280 278 278 277 279 280 280 280 279 281 282 283 284 285 286 286 287 288 288 288 289 290 290 290 290 292 293 293 295 295 296 296 296 296 296 297 297 298 296 293 295 295 295 296 294 296 295 296 297 297 297 296 294 292 292 292 292 292 292 290 289 289 289 289 288 288 288 288 289 290 290
279 278 277 273 277 269 271 271 270 276 275 277 277 278 279 277 277 275 272 276 280 280 281 281 281 282 283 284 285 286 286 286 284 286 288 289 290 291 291 291 292 293 294 295 296 296 297 297 296 296 296 297 297 297 295 295 294 294 294 293 294 295 295 295 295 296 295 294 293 292 292 292 292 291 290 290 290 290 289 288 287 288 288 290 289 290
281 276 278 273 273 275 271 269 270 269 266 272 279 280 281 282 281 281 277 275 281 282 282 281 281 282 282 283 284 284 284 281 280 283 287 288 290 291 292 292 293 293 294 294 295 296 296 296 296 296 295 295 295 295 295 294 294 293 294 294 293 293 293 293 295 296 295 295 294 292 292 292 292 292 290 290 290 290 289 287 287 288 288 290 289 289
274 280 279 275 273 273 271 268 268 266 270 278 279 279 279 280 281 279 274 271 280 281 282 282 281 282 282 282 282 283 281 277 279 283 287 287 287 288 289 291 291 292 292 293 294 294 295 296 296 295 295 294 293 295 293 293 292 293 293 294 293 293 293 293 295 296 295 295 293 292 291 291 291 291 290 290 290 289 288 288 288 288 288 288 289 289
272 274 275 273 272 273 271 269 268 271 271 277 278 278 279 280 280 278 267 270 280 282 283 283 282 282 282 282 282 281 279 277 279 284 288 288 288 288 287 288 289 290 290 291 292 292 293 294 294 293 293 293 294 295 294 292 292 292 294 294 294 293 293 294 295 296 296 294 292 291 290 290 290 290 290 290 289 288 288 287 287 287 288 288 289 288
266 268 271 269 270 271 272 269 271 272 279 281 278 277 280 281 278 269 267 274 281 282 282 282 280 280 282 281 281 280 283 285 286 287 288 288 287 287 288 288 287 287 288 289 290 291 291 291 292 293 294 295 295 295 295 293 291 292 293 294 294 292 294 295 296 295 292 291 290 290 289 289 290 290 289 289 288 287 286 286 287 287 287 287 288 288
264 265 267 267 268 267 268 267 268 271 277 278 278 278 281 278 269 269 278 282 281 278 280 279 279 281 283 283 284 284 286 287 287 287 287 287 287 287 287 287 286 287 288 288 289 288 289 289 289 290 291 292 293 293 293 291 291 292 293 293 293 294 296 296 294 291 290 290 290 289 288 288 288 288 288 286 286 286 286 286 287 287 287 288 288 287
263 261 262 261 264 264 265 264 263 260 270 277 277 276 279 272 274 279 279 279 279 278 278 279 280 282 284 284 286 286 286 286 286 286 286 286 287 287 287 286 286 286 287 287 288 289 288 288 289 289 290 291 292 292 291 289 290 291 292 292 294 296 296 293 290 290 289 289 288 287 287 287 287 287 287 286 286 286 286 286 286 286 287 287 287 286
270 262 263 262 268 262 263 261 262 269 273 277 276 271 276 278 279 278 277 276 278 279 279 280 282 284 285 285 285 285 285 285 285 286 286 287 287 287 287 286 286 286 286 286 287 287 288 288 288 289 290 291 291 291 289 289 290 290 291 292 295 295 288 288 288 288 288 287 287 286 286 285 285 285 285 285 285 286 285 284 285 286 286 287 287 286
271 267 269 266 268 264 263 268 273 275 275 277 277 277 277 278 279 278 278 277 277 278 281 281 280 281 285 285 285 285 284 285 285 286 285 286 287 287 287 286 286 286 286 286 287 287 287 287 287 288 289 290 290 290 288 288 289 289 290 293 294 288 288 287 286 287 287 286 286 285 284 284 284 284 283 284 285 285 284 284 285 284 286 286 286 285
272 272 272 270 270 273 274 274 275 275 276 276 276 277 276 277 278 278 277 277 278 280 279 278 279 282 285 285 284 284 284 284 285 286 286 286 286 287 287 287 287 286 286 286 287 287 287 287 287 287 287 288 289 290 288 286 287 288 290 293 289 287 288 286 286 286 286 285 284 283 283 283 281 281 282 283 284 285 285 284 284 284 285 286 285 284
272 274 272 269 271 268 265 273 273 274 275 275 276 277 277 278 277 278 277 277 278 278 278 279 280 282 283 284 283 282 283 285 285 286 286 286 286 286 286 286 286 286 286 286 287 287 287 287 287 287 287 287 289 289 288 285 286 288 290 285 284 285 285 286 286 285 284 283 282 281 282 282 282 281 281 281 283 283 284 285 285 285 285 285 284 282
268 274 270 271 269 268 269 273 275 275 275 276 276 276 276 276 277 277 277 277 278 278 278 279 280 280 281 280 281 281 284 285 285 284 285 285 285 286 286 286 286 286 286 287 287 287 287 286 286 286 287 287 289 289 289 287 286 286 286 282 282 283 284 285 285 285 283 282 282 282 282 282 281 281 281 281 282 282 283 284 284 284 284 284 283 282
273 273 267 270 269 271 273 274 274 274 274 275 275 276 276 276 276 276 277 277 277 277 278 279 279 278 279 279 280 283 284 284 283 283 283 284 285 285 286 286 286 286 287 286 287 287 287 287 287 287 287 287 289 289 288 287 285 283 282 283 282 284 284 284 283 283 281 281 281 281 281 281 281 281 281 280 280 280 281 281 283 282 279 277 276 279
273 269 273 271 267 267 267 270 273 268 268 273 274 275 276 277 277 276 277 277 277 277 277 277 277 278 279 280 281 283 281 281 282 283 283 284 285 285 286 286 286 286 287 287 287 287 286 286 286 286 287 287 288 287 286 285 282 280 280 281 282 284 284 283 282 281 280 281 281 280 281 280 280 280 280 280 279 279 280 281 281 280 279 277 281 283
272 273 272 268 267 267 272 274 275 274 274 274 275 276 277 277 277 276 276 276 277 277 277 277 276 277 278 280 281 280 280 281 282 284 284 284 285 285 286 286 286 286 286 287 286 286 286 286 286 286 286 286 286 283 282 281 279 278 279 281 282 284 284 283 282 281 280 280 280 281 281 280 280 280 280 280 281 280 278 279 281 283 283 282 282 283
Wind_Speed
2 8 4 7 11 14 15 16 15 13 4 4 3 3 3 5 8 1 3 2 5 7 12 13 17 16 11 11 8 9 9 9 10 12 12 16 15 15 14 12 13 13 14 12 13 14 14 15 14 13 11 11 11 11 11 12 13 14 14 12 14 12 11 11 11 10 11 11 9 8 11 12 11 11 10 9 9 10 10 11 11 10 10 10 9 9
4 6 8 8 10 11 16 16 15 11 12 9 4 4 6 2 4 2 3 4 4 10 7 13 15 19 16 10 10 8 9 12 12 12 14 14 14 14 16 15 14 14 9 8 7 8 9 10 11 11 10 10 11 12 13 14 16 15 13 14 14 10 12 13 13 12 12 12 13 14 14 13 11 10 10 12 11 11 10 10 10 10 10 11 10 9
4 6 6 5 4 6 4 3 8 13 14 12 7 5 6 6 3 6 4 3 1 5 8 6 15 16 15 13 12 14 12 11 12 13 13 14 14 13 12 12 11 8 10 10 11 10 11 13 13 12 12 12 16 17 17 17 15 12 12 14 12 12 13 13 13 12 13 12 11 11 9 10 8 7 8 8 8 8 9 10 11 11 11 12 11 11
8 8 12 7 2 0 4 3 6 7 8 9 7 7 9 2 0 2 2 4 5 5 2 6 11 11 11 11 14 14 15 12 10 13 14 14 16 16 15 13 12 11 11 12 13 13 12 13 13 12 12 13 13 12 12 13 14 13 13 13 13 14 14 12 13 15 14 12 10 9 4 3 5 5 5 6 6 7 9 11 11 11 11 12 12 11
10 1 3 2 4 4 6 4 6 7 10 8 9 8 8 6 3 3 3 6 6 8 7 4 6 9 8 10 10 12 15 16 16 13 12 10 10 11 8 7 10 14 12 11 10 10 10 10 11 13 14 14 14 14 15 15 14 12 17 17 17 15 15 13 14 15 11 8 6 6 2 2 3 1 3 5 9 10 10 10 11 14 13 13 12 11
13 9 1 2 1 1 1 3 6 6 8 8 7 12 10 5 5 4 6 7 5 4 6 9 9 14 6 12 14 10 12 17 15 17 16 12 10 7 8 10 9 9 9 12 12 12 12 13 13 13 13 13 13 14 14 15 17 16 16 16 15 12 12 13 14 14 10 11 11 10 10 9 8 9 8 11 15 13 13 16 15 12 12 12 12 11
6 3 7 5 2 2 3 4 5 6 7 6 6 9 11 7 4 5 8 3 4 4 2 2 14 14 7 10 10 10 12 17 14 15 16 14 12 11 11 10 9 11 10 8 8 8 10 12 12 13 13 13 14 15 14 14 15 17 16 15 15 14 13 13 12 12 11 10 10 14 15 15 14 14 13 14 11 10 11 10 10 12 10 11 12 12
2 4 7 6 6 5 2 3 4 8 6 6 2 7 7 9 10 9 8 6 6 3 11 6 1 6 11 9 8 10 12 14 15 15 15 15 14 13 13 12 10 10 11 11 12 10 11 13 15 16 16 14 15 15 13 12 12 15 16 14 14 12 12 11 11 12 13 13 13 14 14 13 12 13 15 14 12 9 8 9 11 8 9 10 11 11
4 7 7 6 5 5 7 11 2 4 2 1 4 1 7 11 12 11 9 8 5 5 9 6 5 4 9 5 5 12 14 13 16 16 17 17 16 15 14 14 12 10 11 11 11 10 11 12 13 14 15 15 15 14 14 13 14 15 15 14 12 13 12 11 13 14 16 15 15 15 14 13 12 13 13 8 6 7 8 9 8 8 9 9 10 11
3 3 4 1 6 7 6 5 7 8 6 2 6 5 4 5 7 10 9 9 9 6 11 10 5 7 9 6 7 5 13 17 16 17 17 17 17 15 13 10 10 9 8 8 10 10 10 11 12 13 14 13 13 13 12 12 12 12 11 12 13 14 13 13 14 15 16 17 14 13 13 15 14 12 11 8 7 8 8 10 10 9 9 9 8 9
4 0 5 2 4 1 2 2 6 8 9 6 6 6 5 2 1 1 3 7 6 14 13 13 12 7 9 6 9 10 7 10 12 12 12 12 12 12 10 10 10 9 10 9 9 9 10 10 11 10 12 13 12 9 9 9 9 9 10 12 13 16 14 14 15 15 16 16 14 14 15 16 16 15 13 11 10 8 7 10 10 9 9 8 9 8
3 1 1 3 4 2 1 2 1 2 4 2 1 2 3 7 2 2 2 0 9 12 11 14 13 10 13 4 7 6 3 12 11 12 13 12 11 10 9 9 9 9 9 9 9 10 9 6 7 5 7 8 9 8 8 8 9 9 11 11 14 14 14 13 13 14 15 14 15 15 15 16 17 16 13 14 14 12 12 11 11 8 7 7 8 8
2 4 3 2 3 9 3 2 1 3 2 5 3 4 3 3 3 7 2 7 7 11 4 6 9 8 17 13 3 5 7 5 9 9 10 8 7 7 7 8 7 6 6 7 7 8 7 8 9 8 9 8 7 9 11 12 11 11 11 12 14 15 14 14 13 14 16 15 15 16 16 16 15 15 14 13 12 10 10 9 9 8 9 8 8 9
5 1 2 2 4 4 6 5 3 1 3 6 6 5 4 6 6 6 7 4 7 8 2 1 2 12 7 10 13 14 11 9 6 7 5 7 9 9 9 7 6 7 7 8 8 8 9 9 9 9 10 11 12 12 13 12 12 11 11 12 13 16 14 14 13 15 15 16 16 15 15 15 13 14 14 12 11 10 9 8 9 9 10 10 11 11
4 4 2 1 2 1 5 7 9 6 7 6 1 3 4 3 3 8 6 11 11 8 4 6 4 5 10 8 12 17 16 12 8 7 6 7 6 5 5 5 7 8 8 9 9 10 11 13 12 12 12 12 13 14 13 11 11 11 11 12 14 14 13 13 14 13 15 15 15 14 14 14 12 13 12 12 10 9 9 8 9 9 8 9 9 10
3 4 4 4 2 2 6 4 1 3 2 4 4 3 4 8 2 4 2 3 5 6 2 1 7 4 7 4 5 4 3 10 10 10 7 7 6 5 6 7 8 8 8 8 9 11 12 13 13 13 13 13 12 12 10 11 10 10 12 12 14 16 16 15 14 13 14 14 13 14 14 15 14 12 11 10 9 9 8 9 9 10 9 9 8 8
5 2 3 9 1 4 3 6 2 3 3 4 8 6 8 4 6 4 8 4 3 2 9 3 5 8 8 12 3 1 4 10 9 11 9 9 10 9 10 10 10 10 10 10 9 10 12 12 11 12 12 12 11 9 11 12 11 12 12 11 13 13 11 12 13 14 13 13 13 14 14 13 13 13 13 12 12 11 9 9 9 9 9 8 8 8
2 8 8 1 7 4 1 1 1 7 4 3 1 1 4 5 3 5 5 0 7 8 4 10 12 7 11 12 7 10 2 4 6 6 10 11 9 9 9 10 10 11 10 10 11 12 13 13 15 15 14 14 14 13 13 14 11 11 12 12 13 11 11 11 10 11 11 12 13 13 13 14 14 14 14 12 11 10 9 8 8 7 7 9 9 9
2 4 3 0 3 5 3 2 5 3 3 5 3 2 2 2 2 4 1 9 4 3 3 9 10 12 12 11 2 13 12 8 10 8 8 10 11 13 13 13 11 10 9 9 9 11 12 12 13 14 15 15 15 14 13 12 10 7 7 7 9 12 13 13 11 11 11 11 11 11 13 14 14 12 11 10 10 8 9 9 9 9 10 9 8 8
1 1 4 2 4 4 2 3 2 5 2 1 2 3 2 1 4 3 5 4 3 9 6 5 8 8 7 10 10 8 12 14 14 10 7 10 12 13 14 14 15 14 12 12 11 11 12 13 14 16 16 16 15 13 11 9 6 8 8 7 8 8 7 7 8 9 10 10 10 10 8 9 10 10 10 10 9 9 9 10 9 10 8 10 8 7
2 1 4 3 5 3 3 1 2 2 2 4 3 2 1 1 1 1 3 1 1 2 3 3 4 4 7 4 7 8 8 7 9 11 10 10 9 9 8 9 10 13 13 12 12 12 12 12 13 14 15 15 12 6 5 5 7 7 5 6 7 9 8 8 9 8 9 7 8 8 9 10 9 10 9 9 10 11 11 10 9 9 9 6 7 7
1 1 3 6 7 0 5 2 3 3 4 3 3 5 4 6 7 6 7 3 4 3 6 7 11 3 7 2 3 6 9 8 9 10 12 12 13 13 12 11 11 11 10 10 11 12 12 12 13 13 13 7 5 6 6 6 5 5 6 8 7 6 6 7 6 7 7 7 8 9 9 9 8 10 9 10 10 10 10 9 9 9 6 7 8 7
1 1 2 6 3 8 10 11 3 4 2 3 3 3 3 1 3 4 9 2 2 3 4 8 7 12 9 11 3 8 9 9 9 8 8 10 8 7 8 8 9 10 12 13 11 11 11 11 12 13 12 10 9 8 6 5 6 7 7 7 7 8 9 9 9 8 7 7 7 8 8 7 8 8 9 10 9 10 10 10 9 7 8 8 7 5
3 1 4 6 5 7 10 5 2 2 4 0 1 0 2 0 1 1 4 7 7 7 6 5 5 4 3 8 8 8 8 7 5 4 9 9 10 10 8 8 10 11 12 12 12 11 10 9 7 5 5 7 6 6 7 7 7 6 6 7 7 9 10 8 8 8 8 8 9 8 8 8 8 7 8 9 10 11 10 9 7 6 7 6 5 6
5 2 3 9 8 8 6 4 4 3 4 1 1 2 1 2 1 4 3 3 4 5 7 5 7 7 6 6 11 14 16 17 17 13 3 9 6 7 9 8 8 9 10 11 12 13 12 8 7 8 8 8 7 5 5 6 6 6 8 6 7 8 6 5 4 5 5 6 8 9 9 9 9 10 11 11 10 11 9 7 7 6 6 5 5 4
2 5 2 3 6 5 8 5 3 3 2 2 1 5 3 2 4 4 4 2 5 2 2 2 5 8 12 10 12 14 15 17 18 17 15 5 7 8 7 8 8 7 9 10 11 9 10 9 8 7 7 7 6 6 6 6 7 6 5 6 6 7 6 6 6 6 7 7 7 7 8 9 8 9 11 11 9 9 8 8 7 6 5 6 6 5
2 0 2 4 5 9 10 8 2 4 7 8 11 5 8 5 3 1 3 4 5 9 11 5 7 15 20 19 10 8 9 12 15 18 17 16 7 4 6 9 8 8 8 9 8 9 7 7 7 6 7 6 5 6 6 6 5 5 5 6 6 6 6 6 6 6 6 7 7 7 8 8 9 10 8 8 7 5 6 7 6 7 6 5 6 6
1 1 4 6 10 13 13 14 11 7 11 12 11 14 11 9 8 6 6 9 4 4 11 6 8 11 19 18 8 7 12 13 14 13 16 16 17 15 10 10 12 12 12 11 9 8 9 8 7 6 7 7 7 5 4 4 5 6 7 8 7 6 6 6 6 6 6 6 6 7 9 9 7 6 7 5 4 5 5 4 4 5 5 6 5 5
0 2 3 4 10 12 13 15 11 8 9 11 12 13 15 13 9 7 11 12 8 7 13 14 11 12 16 19 14 12 13 15 16 17 16 15 15 18 16 11 13 15 14 13 14 11 7 7 7 7 7 7 5 6 6 5 6 6 5 6 6 5 8 6 6 6 6 6 7 9 9 6 5 4 4 4 4 4 4 4 4 4 5 4 4 4
0 5 5 4 11 10 10 10 10 10 10 10 12 14 14 13 14 13 15 15 14 14 13 16 16 17 16 19 18 14 12 13 15 13 12 13 17 19 19 17 15 15 15 16 14 12 9 8 7 8 7 6 7 7 5 6 8 8 8 8 6 6 5 5 6 7 6 7 9 7 5 5 5 5 5 5 5 5 4 5 5 5 5 4 4 4
1 5 7 5 10 11 9 8 7 8 9 13 15 14 15 15 15 15 13 15 13 12 13 16 19 18 14 18 22 20 15 12 12 13 15 17 16 17 18 20 19 17 15 15 15 11 10 10 8 7 7 9 9 9 9 8 7 5 6 6 5 6 5 5 6 7 8 10 9 6 5 5 6 5 6 6 5 5 6 6 5 5 5 5 5 5
2 5 2 5 10 14 4 7 9 10 13 15 18 19 18 17 15 13 10 8 7 11 15 15 14 13 15 19 19 17 11 10 13 14 14 14 14 15 16 18 20 21 21 15 13 12 9 12 12 10 12 13 10 9 8 8 7 5 8 7 7 7 5 7 8 9 9 10 7 6 7 7 6 6 6 6 7 6 6 5 6 6 6 5 5 5
4 4 4 3 9 13 8 8 10 8 11 16 25 19 18 14 9 9 9 9 12 13 13 11 15 15 16 13 12 15 13 9 7 9 12 14 14 14 15 17 17 18 19 20 15 13 13 11 11 12 12 14 13 9 10 10 6 9 10 8 10 6 7 8 8 8 8 7 6 8 8 7 7 7 6 7 6 6 6 6 6 6 6 7 5 5
7 9 8 4 6 11 6 9 5 7 10 21 8 2 6 11 11 14 15 15 16 11 11 13 14 14 15 17 16 15 16 15 13 12 12 13 13 12 12 13 14 15 17 18 18 15 14 14 12 10 11 13 12 10 7 6 9 11 9 8 5 7 8 8 8 8 9 8 8 8 7 7 7 7 7 6 6 6 6 7 8 6 5 5 5 6
9 8 8 5 5 8 8 5 8 13 20 7 4 3 6 10 11 14 17 16 15 14 13 16 17 18 19 18 18 19 18 20 17 13 11 10 10 11 13 14 14 15 16 17 18 17 16 15 14 13 10 11 10 9 5 4 8 9 5 5 7 8 8 8 9 9 9 10 9 6 6 7 7 8 7 7 7 7 7 7 6 6 6 7 7 7
8 10 5 6 4 6 6 5 8 19 5 6 3 4 4 5 5 5 11 13 13 14 13 13 15 17 18 19 19 19 19 21 18 11 8 11 12 13 14 14 15 16 17 16 17 18 16 15 15 14 13 11 12 11 6 9 8 6 8 5 7 7 9 10 10 11 9 8 8 8 8 8 9 8 7 7 7 8 8 7 8 8 6 6 5 4
14 10 6 6 6 7 5 9 15 14 21 21 13 8 5 9 7 5 10 12 7 5 7 11 15 16 17 18 18 17 17 15 12 11 6 11 13 14 15 16 16 17 16 17 17 18 17 16 13 13 12 11 11 12 10 9 7 7 6 5 8 9 9 8 9 11 11 11 10 10 10 10 10 9 9 9 9 9 8 8 8 6 6 7 6 6
8 8 5 8 5 8 8 11 7 7 15 9 5 8 5 9 8 9 7 14 12 14 12 12 14 15 16 15 15 15 12 11 13 12 8 8 10 13 13 13 14 14 14 15 16 15 16 15 13 12 11 13 14 12 10 8 7 7 7 8 8 7 8 9 12 13 12 13 12 12 11 11 11 11 10 10 11 11 8 6 5 7 7 9 8 7
2 7 9 11 9 8 9 10 7 9 11 6 10 3 6 5 8 3 4 10 5 7 10 9 11 12 13 14 15 13 11 10 12 12 9 9 10 9 12 13 12 12 12 12 13 15 16 16 15 15 13 11 12 14 11 10 8 7 9 10 10 10 11 12 14 15 14 14 12 10 11 11 10 10 10 11 10 9 9 9 9 6 6 5 6 6
7 2 1 6 8 8 11 14 13 4 4 3 4 8 11 9 1 2 7 5 8 15 9 13 12 14 15 14 11 10 7 9 10 10 13 17 14 11 10 12 14 13 14 13 12 12 14 15 15 14 13 14 15 15 14 9 7 9 11 13 11 11 13 15 17 17 15 10 10 10 10 9 10 10 11 11 9 8 8 7 7 8 8 6 6 6
3 4 5 9 9 12 14 12 10 9 6 3 6 14 15 11 1 4 8 6 14 11 14 13 16 18 15 13 9 10 9 9 11 14 16 15 15 13 10 9 9 8 10 14 15 14 11 12 12 14 16 15 15 15 14 9 7 10 12 13 11 13 16 17 17 13 8 9 10 10 11 10 11 12 10 9 9 8 7 7 9 8 8 8 7 7
3 2 4 4 9 9 9 12 11 10 5 4 10 12 6 5 3 4 8 11 13 19 17 18 19 15 12 12 11 11 13 15 12 13 16 17 16 13 9 9 11 11 10 9 12 12 11 11 12 13 14 15 15 14 11 6 9 12 13 12 13 16 17 17 12 8 8 10 12 11 11 11 9 9 9 8 8 9 8 7 7 8 9 8 8 9
2 1 6 4 3 4 5 9 10 12 0 6 12 13 5 4 6 8 13 16 15 15 19 18 14 13 11 13 14 14 15 15 15 15 17 18 16 15 12 10 12 12 13 14 15 15 11 11 13 13 14 14 13 11 8 6 10 12 13 13 17 17 16 9 7 9 10 10 10 10 11 10 11 10 8 9 10 10 10 8 9 8 8 9 8 9
2 4 6 5 5 6 7 8 6 1 4 13 13 8 10 7 8 12 13 17 18 14 13 12 11 12 14 13 15 16 15 16 17 16 17 17 17 16 12 8 9 11 11 11 11 13 12 12 12 13 14 15 13 11 7 7 11 13 14 17 17 14 5 5 6 7 8 9 9 9 8 8 9 8 8 9 9 9 10 10 10 9 8 8 9 9
8 9 6 11 3 4 6 9 9 12 14 14 15 13 12 15 16 16 14 14 16 14 8 9 17 19 14 13 15 15 15 15 16 17 16 17 18 17 16 14 11 12 13 13 14 15 11 11 14 15 15 16 16 14 8 6 10 13 16 18 15 6 8 7 8 9 9 9 9 9 8 7 8 8 8 8 10 10 10 11 11 10 8 9 8 8
5 8 1 4 12 6 14 18 14 15 15 10 5 8 14 17 18 17 15 14 13 9 11 16 17 17 15 12 13 15 15 17 18 17 16 16 17 18 16 15 13 10 11 12 14 13 12 13 13 13 15 17 17 16 10 7 8 13 17 16 7 5 7 8 9 9 9 8 8 8 9 9 7 6 7 8 7 8 9 12 12 11 10 8 8 9
11 9 7 11 8 8 15 4 8 12 10 10 16 17 16 14 16 14 13 11 10 14 17 19 18 14 14 15 15 17 20 17 15 16 15 14 17 19 20 18 16 13 11 14 16 14 14 12 13 15 15 16 17 15 12 8 9 12 13 6 4 5 6 8 9 8 7 8 8 7 9 10 9 8 7 7 7 6 7 8 9 9 9 9 10 9
9 5 11 14 13 14 18 15 14 11 11 14 15 17 19 16 13 10 9 10 15 16 16 16 13 14 15 17 19 20 19 16 13 15 16 16 17 18 20 20 18 15 13 11 14 14 14 14 13 15 15 16 17 15 13 10 11 11 8 5 4 6 7 8 9 10 9 9 8 8 9 9 10 10 8 7 8 8 7 7 7 9 10 11 12 12
7 1 8 3 11 15 17 17 16 16 18 19 18 15 13 12 14 16 15 15 15 15 15 14 15 19 20 21 20 18 16 17 15 16 18 18 18 17 18 19 19 17 15 13 13 13 14 15 16 16 15 17 16 15 13 13 11 8 7 7 6 7 9 9 7 7 8 8 8 7 6 7 8 8 9 8 7 6 4 6 7 6 3 1 1 4
8 14 10 10 15 16 14 14 11 13 13 14 14 12 13 14 16 18 16 15 15 16 18 20 21 19 19 18 17 14 16 18 19 16 17 18 18 19 19 20 19 19 17 14 11 12 15 17 17 17 18 17 15 13 13 13 9 7 6 6 7 9 10 9 8 8 9 8 8 8 8 8 8 8 9 9 11 11 9 10 10 5 4 2 5 8
12 11 9 13 13 16 16 15 14 18 19 16 17 18 15 13 14 18 19 19 18 18 18 19 21 21 18 16 12 13 17 19 21 15 14 16 18 18 18 19 19 19 18 15 12 15 16 17 18 18 18 18 15 11 11 11 8 7 7 7 8 10 10 10 9 8 8 8 8 10 9 9 9 8 8 9 11 11 14 11 11 14 11 8 9 10
Wind_Direction
166 204 188 191 196 195 197 200 205 218 268 311 337 26 324 298 251 236 192 235 184 205 219 224 236 237 225 213 223 224 208 206 199 198 205 213 225 220 224 217 212 209 215 216 209 201 197 197 196 195 190 192 194 193 187 190 196 195 194 186 196 194 186 185 186 189 188 191 196 203 206 213 212 213 211 216 219 216 218 217 217 219 219 218 212 211
71 249 221 230 227 209 203 195 200 214 238 256 303 329 306 279 262 267 216 231 206 200 223 217 228 236 231 218 213 228 223 212 206 206 209 213 214 214 212 213 211 211 218 223 220 217 207 199 193 189 188 185 185 200 194 195 199 197 192 193 198 184 190 192 191 191 194 196 196 193 202 203 206 204 204 215 214 216 217 215 217 218 220 217 216 211
286 260 267 235 257 355 337 276 218 204 218 234 228 275 275 267 252 288 253 262 264 216 237 207 226 234 230 218 211 216 215 219 212 204 210 215 220 220 216 213 212 212 216 215 216 207 200 199 194 186 189 191 195 195 194 201 197 193 195 202 193 192 193 196 193 189 200 200 200 198 207 202 210 217 217 220 220 217 219 218 217 219 219 218 219 213
252 257 253 246 280 328 299 185 202 219 235 232 224 237 235 267 126 302 255 226 236 187 221 228 234 242 238 225 218 217 222 224 213 204 213 211 219 221 217 210 210 212 213 213 211 209 203 198 194 191 192 194 197 195 200 201 197 195 199 201 195 198 198 195 196 199 202 197 198 206 201 203 199 200 214 220 222 219 217 224 219 222 219 218 219 212
228 173 25 128 208 176 225 239 192 196 223 222 225 235 243 241 255 212 274 1 324 285 250 266 279 264 230 229 221 220 222 227 226 219 215 224 228 232 232 223 217 214 209 216 217 216 203 199 198 195 197 196 195 195 197 196 195 197 200 201 197 197 197 197 197 199 191 176 182 186 127 104 193 265 189 208 231 219 217 223 221 223 216 218 218 214
249 231 319 62 349 62 83 257 233 182 220 234 227 221 233 232 252 302 321 18 348 297 238 227 267 253 213 222 220 209 219 227 222 225 218 213 224 231 230 225 222 227 219 207 210 207 201 202 203 203 202 197 199 199 200 197 197 197 202 201 198 198 198 200 199 194 178 185 186 177 189 199 203 211 203 212 216 208 208 215 218 219 215 214 217 215
249 159 211 205 219 321 353 295 246 174 218 213 238 200 231 240 238 266 288 350 268 205 279 188 239 258 221 225 219 216 214 222 223 224 226 217 217 219 225 225 218 216 224 233 226 210 202 206 203 205 203 201 200 205 201 199 200 201 202 199 195 196 198 199 196 183 182 187 193 196 200 204 201 206 217 220 220 211 218 220 219 220 211 211 213 216
131 160 180 202 207 216 217 274 256 178 194 241 229 172 204 216 233 245 254 226 235 296 291 291 126 281 266 224 208 209 216 221 223 223 224 226 218 216 222 226 221 216 216 214 216 214 207 201 200 205 207 203 204 205 202 201 200 201 203 197 196 198 198 195 188 181 187 192 196 201 208 210 211 213 223 216 215 210 214 215 222 217 215 212 209 211
102 171 168 175 196 189 214 220 242 334 231 271 5 30 209 201 221 228 233 254 235 267 263 292 120 250 254 252 221 194 213 219 221 218 220 222 223 218 218 221 223 219 213 207 213 212 206 206 206 207 207 208 206 205 201 198 200 202 202 199 195 197 196 196 189 188 193 198 198 200 204 210 217 220 229 225 211 211 211 218 222 217 220 214 213 212
29 77 43 245 170 209 219 212 212 242 290 321 346 307 230 235 215 210 216 232 260 242 247 260 196 248 267 206 221 239 218 212 216 218 219 216 220 223 219 218 221 223 228 223 217 212 210 209 207 206 208 207 209 210 205 203 202 201 198 196 194 199 199 199 194 193 197 200 200 203 206 210 217 219 230 222 209 208 200 217 219 215 216 213 212 215
259 223 182 164 196 245 94 212 214 222 239 324 338 313 303 50 305 21 186 202 247 247 239 235 241 208 275 193 208 197 210 220 213 222 222 219 220 223 224 220 215 215 219 227 228 226 217 214 210 204 206 211 212 212 207 205 203 201 199 198 198 203 203 201 199 194 199 201 202 206 207 211 216 217 219 219 218 209 202 214 218 211 214 207 212 210
289 295 119 238 153 99 121 11 38 233 165 107 36 359 342 278 346 7 345 44 213 248 236 218 229 204 241 197 212 221 203 215 215 216 216 216 211 212 217 221 225 223 223 223 227 236 231 216 219 220 225 221 213 207 207 208 205 203 205 201 204 209 208 205 202 198 203 202 205 209 209 213 218 217 216 217 217 210 210 211 215 210 206 212 213 211
274 209 245 74 203 142 154 107 35 61 92 174 199 263 181 221 161 250 122 234 219 236 229 189 201 245 234 244 241 272 254 251 222 222 221 215 216 221 226 226 228 231 234 233 235 238 245 235 216 205 218 221 221 215 212 208 205 206 207 204 205 212 209 208 203 201 204 204 207 208 211 215 218 222 221 222 223 216 214 212 213 198 207 207 209 213
287 308 146 241 34 252 138 161 157 31 174 170 190 205 176 187 202 232 222 250 255 231 209 29 199 244 280 265 206 221 235 240 239 229 223 212 217 223 223 222 227 235 226 226 228 229 233 235 236 218 212 212 217 218 214 212 208 207 208 206 208 215 209 210 207 206 205 208 210 209 211 215 216 221 223 223 222 218 215 211 214 209 208 206 210 210
34 342 331 137 282 276 204 200 196 171 153 192 71 198 257 211 192 216 201 213 223 236 219 200 175 238 189 232 176 203 210 218 219 234 238 233 234 246 249 243 233 228 232 229 226 224 223 229 229 229 221 216 216 217 214 208 209 207 210 208 210 217 215 213 213 209 209 211 212 212 214 216 215 220 221 225 222 218 212 210 214 217 214 211 215 215
241 230 282 315 297 217 196 245 25 133 133 207 150 111 251 236 33 238 210 178 238 247 298 257 206 210 221 305 312 247 200 208 201 220 222 253 270 267 271 259 252 248 243 233 233 234 232 229 228 227 228 225 220 218 212 209 203 199 207 207 208 210 210 209 210 211 210 211 210 212 213 216 216 218 220 225 222 223 215 213 210 216 212 214 215 217
13 327 304 314 31 188 261 3 312 137 212 213 145 194 225 144 136 292 278 204 252 226 248 165 255 261 318 284 265 272 162 215 216 210 211 221 230 233 234 239 240 242 243 244 240 237 238 236 235 231 231 230 225 220 216 216 208 203 203 202 210 215 216 212 209 209 208 208 208 212 213 214 216 217 217 218 216 216 213 209 210 212 213 212 212 216
58 289 297 336 321 322 304 284 64 304 358 71 88 287 33 37 105 197 261 275 219 230 233 186 218 216 218 262 176 248 181 272 272 242 231 227 230 235 241 239 236 235 237 241 242 242 238 235 233 232 232 231 229 224 224 224 217 214 215 208 209 208 210 217 212 212 210 209 211 212 212 214 213 215 218 218 218 212 207 209 208 209 211 212 212 211
195 338 294 209 232 280 350 4 300 258 201 227 213 54 87 186 241 188 189 255 295 236 249 232 217 221 205 238 208 209 223 237 245 224 224 234 234 236 239 241 241 240 244 244 244 245 244 240 238 235 234 234 232 230 228 228 223 217 216 211 206 209 209 208 206 207 210 208 209 209 211 210 212 215 218 218 218 206 206 208 206 206 214 217 212 205
340 216 294 324 43 289 355 72 274 311 330 131 33 322 198 79 282 259 181 251 211 261 240 251 198 242 205 219 214 213 226 219 229 236 223 226 225 226 230 235 240 239 236 238 239 235 235 237 237 235 233 234 231 229 226 224 212 213 214 202 212 220 214 212 211 206 207 206 206 210 211 214 213 210 211 209 204 206 209 211 208 211 213 218 205 204
285 87 272 283 346 18 344 104 196 86 277 330 348 299 275 264 151 73 330 240 169 248 239 296 235 263 241 198 218 233 242 244 240 242 244 238 236 239 242 242 244 246 244 243 243 243 236 236 239 240 240 237 238 235 224 211 212 219 206 214 217 212 215 209 209 197 208 195 205 203 203 205 200 206 205 206 205 208 211 211 210 210 213 203 207 197
15 39 239 316 349 358 249 219 203 180 197 195 214 267 279 297 285 279 265 165 226 210 246 264 258 286 300 333 298 243 244 235 228 224 234 244 245 242 242 238 237 245 253 248 242 238 239 237 237 241 243 248 236 226 215 212 202 210 205 212 208 209 218 214 214 202 203 198 203 203 209 206 204 203 200 204 204 209 211 212 210 209 198 201 211 192
2 281 331 295 232 270 267 266 216 226 222 240 175 253 98 228 316 280 265 249 330 296 299 265 269 253 223 269 12 16 354 338 337 337 307 303 303 306 302 302 296 277 267 260 248 244 241 239 236 235 232 223 216 215 207 205 207 212 212 207 206 202 216 204 205 199 197 202 205 211 213 208 207 201 200 200 202 207 209 211 207 190 191 200 199 192
13 54 322 278 279 282 295 290 335 163 169 56 345 316 62 82 167 290 289 310 302 292 313 304 245 314 3 353 325 328 322 311 315 354 332 327 326 317 309 308 301 297 284 274 270 260 245 239 244 247 235 227 219 210 205 207 212 216 216 211 208 210 217 208 206 196 191 194 202 207 205 207 204 197 200 202 205 206 209 202 194 179 188 192 177 180
6 285 59 323 330 325 346 344 9 339 42 62 336 286 211 265 31 236 245 248 277 252 228 276 264 293 287 330 326 322 320 320 316 312 273 296 288 285 313 319 317 311 304 293 278 268 265 259 238 225 227 221 219 214 209 207 209 210 216 214 213 223 223 212 194 194 206 200 203 202 200 205 197 195 198 203 202 205 197 187 176 174 179 166 171 171
194 271 303 293 302 313 307 313 311 342 316 307 293 304 280 229 279 10 325 323 274 343 12 193 278 270 294 304 305 315 318 317 314 309 309 267 247 283 299 303 310 317 318 311 297 292 285 281 281 265 235 223 220 211 212 210 210 210 212 220 215 219 220 214 184 192 189 194 197 203 204 206 198 200 200 200 200 196 182 170 166 167 171 164 163 151
230 331 166 202 196 242 244 261 236 338 323 301 290 290 290 289 297 259 258 279 251 270 270 254 278 295 289 287 299 310 316 306 308 310 312 317 312 259 278 300 305 309 309 308 306 296 294 288 279 275 281 254 226 223 217 211 212 206 210 223 223 220 214 206 184 191 187 191 196 197 205 201 201 200 199 196 191 172 162 168 168 160 166 162 152 153
68 285 224 225 247 253 267 269 277 303 286 283 290 287 287 288 287 282 250 255 253 326 278 271 253 262 274 281 282 284 283 283 284 289 296 302 304 302 299 298 301 306 309 306 305 305 301 299 296 266 236 241 248 230 224 219 210 209 207 218 218 213 209 202 188 191 193 186 196 202 204 206 202 197 194 179 163 163 160 147 147 148 134 127 131 140
110 266 247 195 250 256 263 275 283 282 266 272 277 280 283 282 286 271 258 252 255 232 254 266 249 248 264 271 269 258 258 265 268 273 278 284 290 294 297 297 300 299 297 298 298 298 292 294 293 289 288 277 249 220 226 225 232 231 232 231 220 203 212 196 184 195 192 191 198 209 207 195 190 173 155 151 149 151 151 148 138 124 119 112 111 97
2 232 262 228 276 282 284 281 283 276 279 278 270 267 265 267 262 250 252 253 244 243 244 256 259 253 262 275 273 264 258 257 263 267 274 277 281 287 292 294 290 288 289 288 285 288 294 287 282 286 290 284 279 281 249 224 224 218 216 222 214 207 209 159 193 187 192 199 211 212 196 185 177 170 157 152 166 169 154 145 141 133 127 120 114 105
118 268 297 322 301 282 277 286 284 279 268 275 270 259 256 253 254 247 247 254 257 267 267 265 270 270 262 263 269 264 255 266 275 271 265 268 270 275 285 289 289 284 278 282 288 290 292 291 288 286 280 276 272 258 257 251 234 225 225 224 206 207 193 173 183 192 190 206 211 196 179 176 190 172 180 184 162 159 159 157 149 142 140 135 123 135
198 277 313 284 287 279 271 273 282 280 273 264 263 256 246 243 247 250 243 244 235 246 251 257 262 268 260 254 259 273 272 251 251 256 261 265 265 268 271 276 281 288 291 286 286 293 289 290 289 287 289 284 263 250 251 248 239 214 223 214 208 202 170 184 194 194 201 208 194 184 186 193 184 185 189 168 179 170 166 152 152 159 158 143 145 150
218 264 267 245 262 269 275 266 273 298 301 280 251 245 252 257 248 265 245 230 221 222 243 248 248 245 261 273 278 277 273 262 254 254 265 264 264 264 265 267 272 279 284 292 292 286 283 267 266 269 274 276 268 245 229 226 217 219 219 206 213 164 174 196 201 202 205 207 192 197 197 188 188 191 182 190 175 165 158 161 161 167 167 179 170 144
217 227 250 239 260 280 291 278 287 282 260 252 35 156 221 244 239 238 246 242 241 220 232 239 252 265 269 273 271 275 281 275 259 250 239 252 267 270 269 268 271 273 278 282 285 280 275 280 273 259 253 254 266 262 237 198 216 229 220 208 167 171 196 193 204 203 210 205 204 202 194 188 187 189 189 175 167 165 166 170 185 179 170 154 157 167
245 240 241 217 247 265 276 272 259 240 247 351 330 237 216 232 239 245 254 256 259 254 249 257 261 263 265 269 274 276 273 274 272 266 269 268 266 269 274 278 279 279 277 279 281 282 280 275 276 281 281 281 272 272 272 236 223 238 232 181 182 197 190 200 202 208 212 208 209 192 186 190 191 192 183 177 175 174 180 183 173 170 175 170 174 174
240 244 254 243 245 266 256 219 248 250 321 313 342 331 357 331 300 322 294 277 271 270 268 267 267 266 267 268 269 268 270 274 280 279 267 266 260 260 267 266 265 266 269 270 272 276 275 272 274 269 264 260 271 270 229 234 231 220 229 200 198 197 202 200 203 211 211 212 206 198 195 189 193 191 179 178 179 182 186 184 179 176 170 162 160 156
233 246 226 264 207 253 241 239 246 295 295 279 283 280 253 258 263 232 273 282 270 243 234 246 253 257 261 263 266 272 276 281 285 286 254 245 253 249 247 253 256 258 260 264 267 269 271 272 264 262 265 263 258 261 254 238 230 220 226 198 212 204 208 203 208 215 210 211 205 200 195 191 189 187 183 182 181 189 186 179 179 171 163 159 166 166
221 221 234 251 238 205 251 260 254 250 260 294 139 257 227 233 237 236 236 270 271 267 263 267 276 281 282 283 284 282 291 304 292 287 275 251 247 258 257 254 257 259 260 263 269 270 274 274 275 269 256 257 259 253 253 245 223 212 216 218 218 211 215 207 216 217 209 210 205 197 192 191 188 186 183 180 189 191 187 176 164 169 170 169 167 173
311 238 251 247 269 263 245 258 256 261 265 307 305 324 301 222 207 148 147 261 278 345 349 357 338 329 322 318 313 317 315 296 289 290 313 336 332 313 298 292 286 282 276 271 266 269 270 270 267 268 268 264 263 260 244 234 214 203 217 221 217 209 212 214 220 219 212 212 200 190 191 191 187 181 178 185 192 181 177 180 177 163 155 157 159 166
327 284 241 266 270 255 264 257 258 241 296 73 23 20 334 316 340 316 285 252 46 347 350 350 339 327 319 313 310 311 307 300 304 312 319 313 310 307 305 302 305 306 303 297 291 277 274 280 286 283 273 264 257 256 255 237 212 212 220 226 217 210 216 220 221 220 213 200 183 188 185 182 182 182 181 189 182 179 178 158 150 163 161 159 161 157
308 286 194 250 261 273 277 281 286 275 270 335 42 359 351 324 266 242 241 351 341 348 339 332 329 320 312 309 311 304 296 288 296 298 301 302 307 309 308 300 290 289 295 300 295 294 295 288 280 277 276 272 266 262 259 250 224 225 228 230 220 217 221 224 225 219 193 182 179 182 185 183 185 183 187 180 174 165 155 161 163 158 159 163 160 152
274 266 250 192 250 253 259 261 261 282 287 47 359 3 317 344 254 276 356 334 338 330 321 320 312 310 311 306 307 299 298 299 297 299 301 303 302 300 299 300 304 306 297 289 289 294 293 289 286 283 280 274 271 270 269 247 226 233 234 230 228 226 226 226 220 193 182 178 184 185 181 183 184 177 168 156 147 154 162 161 156 158 159 162 158 155
236 289 261 243 246 254 245 265 273 265 339 61 1 343 75 34 296 335 321 317 319 318 314 308 304 309 319 308 304 301 303 305 303 300 297 297 301 304 310 311 303 300 302 306 306 300 296 295 291 285 279 280 277 270 264 241 239 241 236 231 233 233 231 218 189 184 182 183 180 182 181 178 172 168 162 162 164 159 160 159 156 157 162 163 157 153
211 249 267 251 186 244 255 238 234 112 303 324 347 306 312 310 320 318 322 312 314 310 305 304 307 317 313 308 306 306 304 302 300 299 300 299 301 304 305 299 287 290 290 284 278 281 292 294 289 286 286 285 282 274 254 217 234 242 244 240 238 237 206 175 182 169 174 181 182 174 174 170 166 159 156 157 154 156 155 151 156 160 167 167 161 156
172 196 209 257 200 170 234 262 281 309 314 313 303 300 305 309 308 304 302 295 300 302 297 316 313 309 302 300 300 298 301 297 293 297 299 298 301 302 305 306 302 296 293 291 289 292 292 285 287 291 290 286 285 283 265 225 229 243 245 248 244 203 183 179 165 173 179 182 177 171 163 154 158 157 154 157 156 157 157 157 157 159 168 165 163 161
237 212 257 303 262 274 261 264 285 289 287 287 268 290 298 294 293 299 297 292 280 284 314 311 307 298 296 296 298 300 297 299 300 299 299 298 297 296 297 299 298 293 288 289 291 289 288 292 290 287 283 284 283 282 274 241 219 236 244 251 242 187 187 166 171 178 183 173 166 161 152 148 144 142 145 145 152 157 164 163 165 164 160 166 165 163
249 246 257 248 274 287 267 260 248 256 270 293 295 288 280 275 278 281 283 275 283 302 302 296 289 286 292 298 297 299 300 299 299 297 297 295 296 297 297 297 295 293 291 291 287 290 293 292 290 288 285 283 281 281 278 254 235 232 249 258 190 185 169 171 176 175 167 167 156 150 152 152 154 146 142 142 137 142 153 162 169 168 169 169 165 163
272 187 234 250 258 245 268 270 270 280 281 275 274 283 285 285 275 268 265 281 289 290 287 286 290 291 300 299 300 299 294 294 294 297 298 296 294 294 294 295 295 295 288 278 281 284 286 283 279 279 280 280 279 278 276 265 248 241 240 223 184 171 168 174 177 173 175 165 161 159 160 153 146 143 141 142 143 145 153 166 172 174 176 176 172 164
259 116 238 265 266 263 273 280 285 280 272 269 262 255 258 274 289 287 287 287 286 287 286 284 288 292 294 292 293 289 287 289 292 294 293 292 291 289 291 293 294 293 291 289 283 282 280 282 282 278 276 273 273 276 275 265 254 241 222 206 181 172 174 179 173 159 153 151 146 146 143 143 145 144 138 131 119 104 116 151 159 154 126 5 190 176
252 251 269 278 269 266 268 279 287 288 281 277 274 271 278 284 288 289 289 287 287 287 288 289 289 285 283 283 282 284 288 292 292 291 289 288 289 290 293 293 293 293 290 284 282 279 279 277 275 275 274 272 271 270 267 263 252 226 211 188 181 176 174 169 159 153 158 156 152 146 144 140 141 138 136 133 127 120 95 81 91 103 115 123 110 107
233 246 257 258 259 271 270 269 269 267 272 275 285 290 288 287 286 288 289 288 287 285 285 286 288 288 284 280 279 286 289 289 289 290 287 287 289 290 290 291 293 294 292 291 288 282 277 277 277 275 272 268 269 264 252 250 238 214 204 189 181 180 174 162 161 159 155 155 159 159 150 146 142 143 136 135 134 123 124 112 83 82 87 94 96 102